Weather History for Garrison, ND

Change the Weather History Date:

Thursday, December 13, 2012

  Actual Average Record
Temperature  
Mean Temperature 15 °F -  
Max Temperature 28 °F 27 °F 46 °F (2002)
Min Temperature 2 °F 9 °F -14 °F (2000)
Degree Days  
Heating Degree Days 50    
Month to date heating degree days 582  
Moisture  
Dew Point 15 °F    
Average Humidity 88    
Maximum Humidity 92    
Minimum Humidity 84    
Precipitation  
Precipitation 0.01 in - - ()
Month to date precipitation 0.53  
Year to date precipitation 16.60  
Sea Level Pressure  
Sea Level Pressure 30.06 in    
Wind  
Wind Speed 7 mph (SSE)    
Max Wind Speed 14 mph    
Max Gust Speed 17 mph    
Averages and records for this station are not official NWS values.
T = Trace of Precipitation, MM = Missing Value Source: NWS Daily Summary

Daily Weather History Graph

Daily Weather History Graph

Search for Another Location

Airport:

Trip Planner

Search our weather history database for the weather conditions in past years. The results will help you decide how hot, cold, wet, or windy it might be!

Date:

Astronomy

Dec. 13, 2012 Rise Set
Actual Time 8:26 AM CST 4:54 PM CST
Civil Twilight 7:50 AM CST 5:30 PM CST
Nautical Twilight 7:11 AM CST 6:09 PM CST
Astronomical Twilight 6:33 AM CST 6:46 PM CST
Moon 8:35 AM CST (12/13) 5:40 PM CST (12/13)
Length of Visible Light 9h 39m
Length of Day
8h 27m
New Moon, 0% of the Moon is Illuminated
Dec 13
New Moon
Dec 19
First Quarter
Dec 28
Full
Jan 4
Last Quarter
Jan 11
New

Hourly Weather History & Observations

Time (CST) Temp. Windchill Dew Point Humidity Pressure Visibility Wind Dir Wind Speed Gust Speed Precip Events Conditions
12:52 AM 6.1 °F -4.3 °F 3.0 °F 87% 30.07 in - NNE 5.8 mph - N/A   Unknown
1:52 AM 6.1 °F -4.3 °F 3.0 °F 87% 30.08 in - NNE 5.8 mph - N/A   Unknown
2:52 AM 6.1 °F -2.8 °F 3.0 °F 87% 30.08 in - ENE 4.6 mph - N/A   Unknown
3:52 AM 5.0 °F - 1.9 °F 87% 30.09 in - Calm Calm - N/A   Unknown
4:52 AM 6.1 °F - 3.0 °F 87% 30.11 in - Calm Calm - N/A   Unknown
5:52 AM 7.0 °F -4.5 °F 3.9 °F 87% 30.10 in - ESE 6.9 mph - N/A   Unknown
6:52 AM 9.0 °F -2.2 °F 6.1 °F 88% 30.10 in - SE 6.9 mph - N/A   Unknown
7:52 AM 12.0 °F 2.7 °F 10.0 °F 92% 30.11 in - ESE 5.8 mph - N/A   Unknown
8:52 AM 12.9 °F 2.6 °F 10.0 °F 88% 30.10 in - SE 6.9 mph - N/A   Unknown
9:52 AM 14.0 °F 5.1 °F 10.0 °F 84% 30.11 in - SSE 5.8 mph - N/A   Unknown
10:52 AM 16.0 °F 2.9 °F 12.9 °F 88% 30.11 in - South 11.5 mph - N/A   Unknown
11:52 AM 18.0 °F 5.4 °F 16.0 °F 92% 30.09 in - South 11.5 mph - N/A   Unknown
12:52 PM 21.0 °F 10.6 °F 18.0 °F 88% 30.08 in - SSW 9.2 mph - 0.01 in   Unknown
1:52 PM 23.0 °F 12.4 °F 19.9 °F 88% 30.05 in - South 10.4 mph - N/A   Unknown
2:52 PM 24.1 °F 14.4 °F 21.0 °F 88% 30.04 in - South 9.2 mph - N/A   Unknown
3:52 PM 26.1 °F 17.6 °F 23.0 °F 88% 30.02 in - South 8.1 mph - N/A   Unknown
4:52 PM 27.0 °F 17.3 °F 25.0 °F 92% 30.02 in - South 10.4 mph - N/A   Unknown
6:52 PM 28.0 °F 18.6 °F 27.0 °F 96% 30.01 in - SSW 10.4 mph - N/A   Unknown
7:52 PM 27.0 °F 17.3 °F 25.0 °F 92% 30.01 in - SW 10.4 mph - N/A   Unknown
8:52 PM 26.1 °F 15.0 °F 26.1 °F 100% 30.00 in - South 12.7 mph - N/A   Unknown
9:52 PM 25.0 °F 14.2 °F 25.0 °F 100% 29.99 in - South 11.5 mph - N/A   Unknown
10:52 PM 25.0 °F 17.1 °F 24.1 °F 96% 29.98 in - South 6.9 mph - N/A   Unknown
11:52 PM 24.1 °F 15.2 °F 23.0 °F 96% 29.98 in - South 8.1 mph - N/A   Unknown